Погода в Максимовке

Россия / Омская область     55°38′41″N   72°42′35″E
темп.,
°C
ветер,
м/с
пор.,
м/с
влажн.,
%
обл.,
%
осадки,
мм/ч
давл.,
гПа
погр.,
м
18 апреля, вс
вс1800:00+4юз51170100 0.0 1018261
03:00+3зюз4117495 0.0 1015263
06:00+2зюз4979100 0.0 1014197
09:00+4юз51274100 0.0 1010405
12:00+7з71367100 0.1 10081621
15:00+7з101565100 0.2 10071721
18:00−1ссз121570100 0.6 10141338
21:00−5с10156880 0.1 10201222
19 апреля, пн
пн1900:00−6с8115839 0.1 10231207
03:00−8с710525 0.0 10261048
06:00−9с785393 0.0 10281069
09:00−8с684687 0.0 10301189
12:00−5с6736100 0.0 10301595
15:00−3с6731100 0.0 10302093
18:00−3с6733100 0.0 10301986
21:00−5ссв464415 0.0 1031960
20 апреля, вт
вт2000:00−5с36535 0.0 10321096
03:00−6ссз35580 0.0 1032519
06:00−7сз24640 0.0 1032163
09:00−4зсз44475 0.0 10321069
12:00−1з56325 0.0 10301401
15:00+2з78275 0.0 10271603
18:00+3з6113691 0.0 10241737
21:00+2зюз61349100 0.0 1022436
21 апреля, ср
ср2100:00+1зюз71459100 0.0 1020425
03:000сз5119133 0.0 1020379
06:000ссз5982100 0.1 1021891
09:000с786698 0.1 1024998
12:00+2с785899 0.1 10251312
15:00+1с7964100 0.1 10281395
18:00+3ссв7950100 0.1 10301638
21:00−1ссв49705 0.0 1034308
22 апреля, чт
чт2200:00−2ссв49775 0.0 1035300
03:00−2ссв37815 0.0 1037244
06:00−2ссв36805 0.0 1040212
09:00+1св34545 0.0 1041800
12:00+3всв33415 0.0 10411267
15:00+5св2237100 0.0 10421444
18:00+5всв223898 0.0 10421348
21:00+2в22535 0.0 104316